Home   Weather   Indre Arna   Past weeks

Flag for Norway Past Weather in Indre Arna, Norway — Yesterday and Last 2 Weeks

Now
56 °F

Cool.


Feels Like: 56 °F
Forecast: 52 / 56 °F
Wind: 5 mph from South

Location: Bergen / Florida

Current Time: Sep 26, 2016 at 10:47:33 AM

Latest Report: Sep 26, 2016 at 10:00 AM


Visibility: N/A

Pressure: 30.04 "Hg

Humidity: 81%

Dew Point: 51 °F

Location of Indre ArnaLocation

Past Weather in Indre Arna — Graph

°F

Indre Arna Temperature Yesterday

Maximum temperature yesterday: 72 °F (at 4:00 PM)
Minimum temperature yesterday: 59 °F (at 11:00 PM)
Average temperature yesterday: 66 °F

High & Low Weather Summary for the Past Weeks

 TemperatureHumidityPressure
High81 °F (Sep 16, 2:00 PM)92% (Sep 15, 9:00 AM)30.23 "Hg (Sep 15, 9:00 AM)
Low52 °F (Sep 23, 9:00 PM)36% (Sep 16, 2:00 PM)29.77 "Hg (Sep 11, 9:00 AM)
Average62 °F72%30.05 "Hg
* Reported Sep 11 9:00 AM — Sep 26 9:00 AM, Indre Arna, Weather by CustomWeather, © 2016

Note: Actual official high and low records may vary slightly from our data, if they occured in-between our weather recording intervals... More about our weather records

Advertising

Indre Arna Weather History for the Previous 24 Hours

Scroll right to see more
 ConditionsComfort  
Time TempWeatherWind HumidityBarometerVisibility
9:00 AM
Mon, Sep 26
54 °FCool.5 mph85%30.03 "HgN/A
8:00 AM53 °FScattered clouds.2 mph86%30.01 "Hg19 mi
7:00 AM53 °FCool.2 mph86%30.00 "HgN/A
6:00 AM53 °FCool.2 mph85%29.99 "HgN/A
5:00 AM54 °FCool.3 mph84%29.98 "HgN/A
4:00 AM54 °FCool.3 mph83%29.96 "HgN/A
3:00 AM56 °FCool.3 mph85%29.95 "HgN/A
2:00 AM56 °FCool.5 mph86%29.93 "HgN/A
1:00 AM57 °FCool.5 mph86%29.92 "HgN/A
12:00 AM58 °FCool.6 mph83%29.86 "HgN/A
11:00 PM
Sun, Sep 25
59 °FRain. Overcast.5 mph81%29.86 "Hg2 mi
10:00 PM67 °FMild.8 mph41%29.81 "HgN/A
9:00 PM67 °FMild.8 mph40%29.80 "HgN/A
8:00 PM68 °FPassing clouds.10 mph39%29.81 "Hg25 mi
7:00 PM68 °FMild.8 mph39%29.83 "HgN/A
6:00 PM70 °FMild.10 mph38%29.82 "HgN/A
5:00 PM71 °FMild.9 mph39%29.83 "HgN/A
4:00 PM72 °FMild.9 mph40%29.83 "HgN/A
3:00 PM71 °FMild.10 mph42%29.82 "HgN/A
2:00 PM71 °FPassing clouds.14 mph42%29.83 "Hg22 mi
1:00 PM70 °FMild.12 mph46%29.84 "HgN/A
12:00 PM69 °FMild.9 mph51%29.85 "HgN/A
11:00 AM67 °FPartly sunny.8 mph57%29.84 "Hg19 mi
10:00 AM65 °FMild.8 mph59%29.85 "HgN/A
Weather by CustomWeather, © 2016

See weather overviewHow to use our weather pages